Location: Mornago
(45.7500°N, 8.7500°E)
Time: 23:51:38
(UTC+02:00)

ISS - Visible Passes

Search period start: 26 May 2018 00:00
Search period end: 05 June 2018 00:00
Orbit: 402 x 407 km, 51.6° (Epoch: 26 May)

Date Brightness Start Highest point End Pass type
(mag) Time Alt. Az. Time Alt. Az. Time Alt. Az.
26 May -2.6 01:14:14 10° NW 01:17:16 42° NNE 01:17:16 42° NNE visible
26 May -1.8 22:45:03 10° WNW 22:47:59 30° N 22:50:56 10° NE visible
27 May -2.1 00:22:01 10° NW 00:25:02 33° NNE 00:26:26 23° ENE visible
27 May -1.3 01:58:27 10° WNW 01:59:02 14° WNW 01:59:02 14° WNW visible
27 May -2.1 21:52:33 10° W 21:55:36 35° NNW 21:58:40 10° NE visible
27 May -1.8 23:29:43 10° WNW 23:32:39 29° N 23:35:33 10° ENE visible
28 May -2.5 01:06:14 10° WNW 01:08:19 36° NW 01:08:19 36° NW visible
28 May -1.7 22:37:20 10° WNW 22:40:13 27° N 22:43:06 10° ENE visible
29 May -3.0 00:14:00 10° NW 00:17:11 47° NNE 00:17:39 43° NE visible
29 May -1.8 21:44:52 10° WNW 21:47:48 29° N 21:50:42 10° ENE visible
29 May -2.4 23:21:45 10° NW 23:24:49 35° NNE 23:27:00 16° ENE visible
30 May -1.9 00:58:13 10° WNW 00:59:38 23° WNW 00:59:38 23° WNW visible
30 May -2.0 22:29:28 10° NW 22:32:24 30° N 22:35:21 10° ENE visible
31 May -3.8 00:05:55 10° WNW 00:09:01 76° NNW 00:09:01 76° NNW visible
31 May -1.8 21:37:04 10° WNW 21:39:57 28° N 21:42:50 10° ENE visible
31 May -3.2 23:13:39 10° WNW 23:16:53 53° NNE 23:18:26 26° E visible
01 Jun -1.3 00:50:22 10° W 00:51:03 14° W 00:51:03 14° W visible
01 Jun -2.6 22:21:23 10° NW 22:24:30 39° NNE 22:27:35 10° E visible
01 Jun -3.1 23:57:53 10° WNW 00:00:29 42° WSW 00:00:29 42° WSW visible
02 Jun -3.9 23:05:30 10° WNW 23:08:47 84° SSW 23:09:57 37° SE visible
03 Jun -3.5 22:13:11 10° WNW 22:16:27 62° NNE 22:19:26 12° ESE visible
03 Jun -2.1 23:50:03 10° W 23:52:04 21° WSW 23:52:04 21° WSW visible
04 Jun -3.1 22:57:26 10° WNW 23:00:31 40° SW 23:01:34 29° S visible
